Fulton County Airport Brown Field Atlanta US
ICAO: KFTY
IATA: FTY
Category: Medium
Scheduled Services: No

Elevation: 841 ft
TransAlt. 18000 ft.

Airport Communications:
ATLANTA APP/DEP:121
ATIS:120.175
CTAF:118.45
GND:121.7
MACON RDO:122.2
COUNTY TWR:118.45
UNICOM:122.95

KFTY Zoom In..

If you have problems with the map follow the link
https://www.worldairports.se/pages/airport.php?
ICAO=KFTY

Runways:

(A) RW 08 length 5797 ft width 100 ft
ILS 109.10 / hdg 85

(B) RW 09 length 2801 ft width 60 ft
---- / hdg 85

(C) RW 14 length 4158 ft width 100 ft
---- / hdg 144

(D) RW 26 length 5797 ft width 100 ft
---- / hdg 265

(E) RW 27 length 2801 ft width 60 ft
---- / hdg 265

(F) RW 32 length 4158 ft width 100 ft
---- / hdg 324

Location; KFTY
Day. 22 / Time. 11.53 Zulu
* Altimeter: 30.30
* Temperature: 03° c. 37.4°f.
* Wind from: 000° Speed 00 kn.
Dewpoint: 03° c.
Visibility: 10 Statute Miles.
Clouds: Clear (automated report).

KFTY 221153Z 00000KT 10SM CLR 03/03 A3030 RMK AO2 SLP263 T00280028 10044 20022 51018


Wind - Calm.

 
 
jpsmedia.com for Web Design worldairports.se 2018   terms of use